User: anonymous   Login
Location: Unspecified
(0.0000°N, 0.0000°E)
Time: 05:47:12
(UTC+00:00)
Language:

STARLINK-2475 - Orbit

View from above orbital plane
View from above orbital plane
View from above satellite
View from above satellite

Ground track
Ground track

The orbit is defined by the following mean orbital elements,

1 48133U          26145.45016031 +.00000000 +00000-0 -21544-3 0 00000
2 48133  53.1581 168.3758 0001349  85.1293 274.9862 15.31667243    03
Epoch (UTC): 25 May 2026 10:48:13
Eccentricity: 0.0001349
inclination: 53.1581°
perigee height: 470 km
apogee height: 472 km
right ascension of ascending node: 168.3758°
argument of perigee: 85.1293°
revolutions per day: 15.31667243
mean anomaly at epoch: 274.9862°

The dashed part of the orbit path shows where the satellite is in the earth's shadow,  

DLR